Vorticity
nan nan nan nan nan nan nan nan nan nan nan nan nan nan nan nan nan nan nan nan nan nan nan nan nan nan nan nan nan nan nan nan nan nan nan nan nan nan nan nan nan nan nan
nan 8 7 5 6 5 4 4 4 4 5 5 5 5 5 5 4 5 6 5 4 4 4 5 5 5 5 6 7 7 6 5 4 4 6 6 6 7 5 5 7 7 nan
nan 7 6 6 5 6 4 4 4 4 6 5 5 5 5 5 5 4 4 6 8 5 4 5 5 5 5 4 4 5 5 4 5 5 6 7 9 7 4 5 8 6 nan
nan 7 6 8 6 6 6 5 4 4 5 5 5 5 5 4 6 6 5 9 9 6 5 5 5 5 5 5 2 2 4 4 5 6 7 6 7 10 7 5 5 4 nan
nan 6 7 7 7 6 6 5 5 5 5 5 5 4 5 5 4 4 6 10 9 7 5 5 5 5 5 5 3 2 4 6 5 6 6 8 8 8 9 7 5 3 nan
nan 9 8 9 8 6 5 5 5 5 5 5 5 4 4 4 5 4 4 6 8 8 7 5 4 4 5 5 3 2 6 8 4 5 5 7 11 12 7 4 6 4 nan
nan 8 7 9 12 12 10 9 4 6 6 5 5 5 4 4 4 4 5 5 5 6 7 7 5 5 4 4 4 3 5 7 5 4 5 5 6 12 11 9 5 4 nan
nan 5 4 2 6 8 10 13 16 10 6 5 5 6 6 5 5 5 5 6 6 5 6 6 7 5 5 4 4 4 4 6 6 4 4 3 4 7 10 9 8 7 nan
nan 7 7 4 2 3 6 8 17 20 16 8 6 7 6 6 7 7 7 7 6 6 6 6 6 7 6 5 5 5 4 5 6 6 4 3 5 7 7 7 9 8 nan
nan 7 6 7 8 7 4 4 8 12 12 14 10 10 12 8 7 7 7 8 8 7 7 7 7 7 6 6 5 5 4 3 5 6 6 5 5 6 8 9 7 8 nan
nan 5 7 7 7 7 6 5 5 7 7 8 8 9 11 9 8 7 7 8 8 8 10 11 9 7 6 6 6 5 3 3 5 5 7 6 6 7 9 6 8 8 nan
nan 6 8 7 7 8 7 5 5 4 5 6 8 8 8 8 7 8 7 7 8 9 10 13 14 8 4 5 7 6 5 7 6 6 6 7 7 8 9 5 5 5 nan
nan 6 7 9 8 8 7 7 7 6 6 5 5 8 9 8 7 8 8 8 8 9 10 10 12 13 9 6 6 6 7 6 7 7 7 7 8 8 8 8 4 6 nan
nan 7 8 9 9 8 8 7 8 8 8 6 5 7 9 8 7 7 7 7 8 7 8 10 10 11 12 8 6 6 6 5 6 7 8 7 9 9 8 10 6 6 nan
nan 7 8 9 7 6 7 7 6 7 7 7 6 7 8 8 7 7 7 7 7 7 8 8 9 11 11 11 9 8 8 7 6 6 9 8 7 10 10 11 12 6 nan
nan 7 7 7 7 7 5 7 7 6 7 7 7 6 8 9 7 8 8 7 7 7 7 8 8 9 11 12 10 8 7 6 8 6 8 12 10 9 10 12 14 6 nan
nan 6 6 6 6 7 7 6 6 7 7 7 6 6 8 8 8 8 9 8 7 7 8 8 7 8 8 9 8 9 8 6 4 5 7 8 11 14 11 11 13 7 nan
nan 6 6 6 7 6 7 7 7 7 7 7 7 7 6 7 8 8 9 8 9 7 7 8 7 7 7 8 7 8 9 9 6 7 6 6 7 9 11 14 14 11 nan
nan 6 6 6 7 6 6 7 7 8 8 7 8 7 7 8 8 8 8 8 9 9 8 8 7 7 7 7 8 9 9 9 8 7 7 6 8 7 8 16 15 11 nan
nan 8 7 7 6 8 8 7 8 6 6 8 8 6 7 7 7 8 9 9 10 9 8 8 8 7 8 9 10 9 9 8 9 8 8 9 7 9 10 10 12 12 nan
nan 8 7 6 6 8 9 9 8 6 8 7 6 7 10 10 9 9 8 8 9 9 8 9 9 10 9 8 8 10 10 11 9 8 9 10 9 9 11 11 9 9 nan
nan 7 7 6 7 9 10 9 8 8 9 8 7 7 9 8 9 9 8 8 9 10 10 9 8 7 10 9 3 6 11 10 11 10 8 9 12 10 10 14 12 8 nan
nan 7 6 6 7 8 9 11 10 10 8 7 6 8 7 8 9 10 10 9 8 9 9 9 9 7 7 10 7 2 9 9 8 10 10 9 11 10 10 11 13 11 nan
nan 6 5 7 9 8 8 9 9 9 8 7 6 7 6 8 9 10 10 9 9 10 8 9 9 8 7 6 10 9 6 11 9 8 9 8 8 10 9 9 9 13 nan
nan 6 7 7 7 8 9 9 8 8 8 7 7 7 9 8 8 8 8 10 11 9 9 9 8 8 7 8 6 9 9 6 8 8 8 10 9 10 9 10 9 8 nan
nan nan nan nan nan nan nan nan nan nan nan nan nan nan nan nan nan nan nan nan nan nan nan nan nan nan nan nan nan nan nan nan nan nan nan nan nan nan nan nan nan nan nan
CAPE
904 1387 1867 1325 1432 1196 1191 1382 1477 1549 1410 1366 1299 1228 1234 1212 1427 1503 1128 917 779 792 967 648 239 126 89 358 297 114 226 481 702 644 767 555 498 561 879 801 968 773 777
951 1356 1860 1688 1601 1382 1318 1542 1390 1520 1434 1330 1086 1177 1266 1262 1167 1390 1197 1052 649 579 601 345 173 114 133 556 607 458 417 336 337 403 437 432 695 491 604 802 958 597 462
1101 1032 1231 1989 1986 1971 1568 1582 1519 1589 1468 1275 960 729 931 951 880 991 1084 903 630 724 569 390 162 297 353 461 377 182 285 266 213 224 242 369 351 829 841 809 1004 920 448
1332 1064 1037 1911 1773 1600 1569 1637 1541 1552 1695 1703 1435 1030 728 1105 1383 1239 1011 755 676 850 880 564 248 305 257 309 279 216 30 20 10 0 141 304 280 373 707 760 727 641 298
1274 1186 1106 1957 1905 1608 1589 1449 1469 1581 1506 1553 1533 1393 1008 801 996 1259 1096 835 1144 816 794 841 550 310 267 252 355 150 25 0 0 0 23 169 402 451 445 689 678 419 193
919 976 1486 1626 1301 1340 1193 1539 1498 1434 1415 1439 1543 1580 1215 941 883 914 1041 1116 921 978 1014 799 675 377 322 262 281 47 12 0 0 0 6 58 226 304 557 518 348 302 242
0 45 514 1024 1110 1054 1090 1243 1470 1559 1455 1507 1480 1398 1262 1233 1387 1285 1225 1158 1208 1152 908 981 818 476 346 190 168 60 0 0 0 0 22 248 124 268 310 530 421 364 223
0 0 0 0 14 32 381 853 1117 1312 1466 1601 1683 1478 1448 1375 1300 1305 1230 1227 1150 1057 1000 913 843 678 446 261 155 115 0 0 0 0 24 101 235 219 249 331 322 415 329
0 0 0 0 0 0 4 124 380 742 1177 1425 1361 1243 1368 1266 1103 1149 1260 1253 1124 1155 1104 1113 1100 856 609 404 506 327 0 0 0 0 8 27 33 38 388 352 262 321 400
0 0 0 0 0 0 0 0 0 0 223 827 815 619 717 858 921 935 743 844 970 1142 1155 1101 1106 1007 632 678 752 340 0 0 0 0 11 22 61 49 350 387 331 332 295
0 0 0 0 0 0 0 0 0 0 0 224 462 500 637 843 783 700 533 514 671 858 996 1167 1224 954 633 505 598 312 0 0 0 0 0 0 59 66 318 390 255 379 330
0 0 0 0 0 0 0 0 0 0 0 0 52 236 428 583 402 544 359 217 207 373 569 893 1036 856 365 281 316 226 17 0 0 0 0 0 35 122 189 293 323 296 90
0 0 0 0 0 0 0 0 0 0 0 0 0 0 1 212 260 339 430 420 161 71 484 623 867 753 604 438 219 16 0 0 0 0 0 0 12 81 105 122 116 201 116
0 0 0 0 0 0 0 0 0 0 0 0 0 0 0 0 53 12 7 16 63 106 130 267 314 589 562 317 27 0 0 0 0 0 0 0 0 80 226 173 141 248 171
0 0 0 0 0 0 0 0 0 0 0 0 0 0 0 0 0 0 0 0 0 0 0 0 90 78 120 117 32 0 0 0 0 0 0 0 0 1 209 202 202 241 174
0 0 0 0 0 0 0 0 0 0 0 0 0 0 0 0 0 0 0 1 0 0 0 0 0 47 41 7 0 0 0 0 0 0 0 0 0 0 92 112 230 156 107
0 0 0 0 0 0 0 0 0 0 0 0 0 0 0 0 0 0 0 0 0 1 2 0 0 0 3 3 1 0 0 0 0 3 0 0 0 0 37 253 292 142 86
0 0 0 0 0 0 0 0 0 0 0 0 0 0 0 0 0 0 0 0 0 0 1 2 0 1 2 6 6 1 1 0 0 0 0 0 0 4 10 156 416 289 129
0 0 0 0 0 0 0 0 0 0 0 0 0 0 0 0 0 0 0 0 0 1 0 0 0 2 1 3 5 8 2 3 1 0 0 0 0 21 89 89 82 113 134
0 0 0 0 0 0 0 0 0 0 0 0 0 0 0 0 0 0 0 0 0 1 0 0 0 2 1 1 6 8 3 0 5 1 0 0 0 1 62 75 81 88 77
0 0 0 0 0 0 0 0 0 0 0 0 0 0 0 0 0 0 0 0 0 1 0 1 0 0 3 5 2 0 0 1 4 5 7 5 4 7 28 96 197 208 100
0 0 0 0 0 0 0 0 0 0 0 0 0 0 0 0 0 0 0 0 0 0 0 2 1 2 3 6 7 5 10 4 4 4 3 4 10 5 1 30 100 110 12
0 0 0 0 0 0 0 0 0 0 0 0 0 0 0 0 0 0 0 0 0 0 13 4 14 15 28 12 23 18 18 9 1 1 2 0 0 2 2 1 5 5 0
0 0 0 0 0 0 0 0 0 0 0 0 0 0 0 0 0 0 0 0 0 0 10 18 30 35 52 36 24 21 0 0 23 0 1 1 0 1 2 2 0 0 0
0 0 0 0 0 0 0 0 0 0 0 0 0 0 0 0 0 0 0 0 0 0 4 14 21 61 52 51 52 16 15 0 0 0 10 0 0 0 1 3 1 1 0
0 0 0 0 0 0 0 0 0 0 0 0 0 0 0 0 0 0 0 0 0 0 0 0 11 35 74 59 50 38 2 3 0 0 0 0 1 0 1 0 1 0 0